[[{"header":{"parameterUnit":"m.s-1","parameterCategory":1,"la1":30.2991,"la2":30.254,"lo1":-89.0895,"lo2":-89.0444,"dy":0.0017,"dx":0.0017,"nx":28,"ny":28,"refTime":"2023-09-27T03:00:00:Z","depth":0,"parameterNumber":2,"parameterNumberName":"U-component_of_WINDS"},"data":[0,0,0,0,0,0,0,0,0,0,0,0,0,0,0,0,0,0,0,0,0,0,0,0,0,0,0,0,0,0,0,0,0,0,0,0,0,0,0,0,0,0,0,0,0,0,0,0,0,0,0,0,0,0,0,0,0,0,-3.167,-3.167,0,-3.1659,-3.1659,-3.1659,-3.1576,-3.1574,-3.1572,-3.157,-3.156,-3.1562,-3.1564,0,0,0,0,0,0,0,0,0,0,0,0,0,-3.1621,-3.1623,-3.167,-3.167,-3.167,-3.1659,-3.1659,-3.1659,-3.1576,-3.1574,-3.1571,-3.1569,-3.156,-3.1562,-3.1564,0,0,0,0,0,0,0,0,0,0,0,0,0,-3.163,-3.1623,-3.167,-3.1627,-3.1623,-3.1659,-3.1659,-3.1659,-3.1577,-3.1574,-3.1571,-3.1568,-3.1559,-3.1562,-3.1564,-3.1641,0,0,-3.1572,-3.1573,0,0,0,0,0,0,0,0,-3.1629,-3.1632,-3.1634,-3.163,-3.1626,-3.1616,-3.1638,-3.1653,-3.1578,-3.1595,-3.157,-3.1566,-3.1581,-3.1582,-3.1587,-3.164,-3.164,-3.1572,-3.1573,-3.1574,-3.1575,0,0,0,0,0,0,0,-3.1629,-3.1632,-3.1666,-3.1634,-3.1629,-3.1609,-3.1607,-3.1641,-3.1605,-3.1593,-3.1587,-3.1587,-3.1579,-3.1584,-3.1586,-3.164,-3.1572,-3.1574,-3.1575,-3.1576,-3.1758,-3.1761,0,0,0,0,0,0,-3.1634,-3.1632,-3.1666,-3.1665,-3.162,-3.1613,-3.161,-3.1622,-3.1605,-3.1599,-3.1589,-3.1583,-3.1582,-3.1583,-3.1585,-3.1675,-3.1574,-3.1577,-3.1578,-3.1755,-3.1759,-3.1762,0,0,0,0,0,0,-3.1633,-3.1638,-3.1666,-3.1647,-3.1649,-3.1617,-3.1631,-3.1623,-3.1629,-3.1602,-3.1595,-3.1601,-3.1579,-3.1582,-3.1628,-3.1674,-3.1578,-3.158,-3.1751,-3.1756,-3.176,-3.1856,0,0,0,0,0,0,-3.1632,-3.1638,-3.1666,-3.1648,-3.165,-3.1709,-3.1633,-3.1625,-3.1633,-3.1625,-3.1612,-3.1607,-3.1577,-3.1625,-3.163,-3.1675,-3.1582,-3.1746,-3.1753,-3.1759,-3.1848,-3.1863,-3.1876,0,0,0,0,0,-3.1631,-3.1693,-3.1668,-3.1673,-3.1685,-3.1712,-3.1713,-3.1677,-3.1637,-3.1666,-3.1649,-3.1607,-3.1668,-3.163,-3.1636,-3.1682,-3.1743,-3.1751,-3.1758,-3.1842,-3.186,-3.1876,0,0,0,0,0,0,-3.1718,-3.169,-3.1662,-3.172,-3.1719,-3.1698,-3.1732,-3.1698,-3.1708,-3.17,-3.1655,-3.1653,-3.1707,-3.1699,-3.1657,-3.1757,-3.1698,-3.1707,-3.176,-3.1777,-3.1791,-3.1793,-3.1584,0,0,0,0,0,-3.1744,-3.1767,-3.1742,-3.1796,-3.1797,-3.1765,-3.1775,-3.1748,-3.1745,-3.1744,-3.173,-3.173,-3.1749,-3.1762,-3.1778,-3.1846,-3.1843,-3.1881,-3.1895,-3.1907,-3.1916,-3.1954,-3.1971,-3.1787,-3.1787,-3.1787,0,0,-3.1798,-3.1785,-3.1803,-3.1813,-3.1809,-3.1836,-3.1765,-3.1795,-3.1815,-3.1749,-3.1792,-3.1782,-3.1779,-3.1837,-3.1862,-3.1832,-3.1966,-3.1916,-3.1926,-3.1928,-3.1963,-3.1981,-3.1996,-3.1792,-3.1791,-3.179,0,0,-3.191,-3.1902,-3.1947,-3.1945,-3.1939,-3.1918,-3.1929,-3.1913,-3.1904,-3.1947,-3.1898,-3.1921,-3.1954,-3.1955,-3.1959,-3.2073,-3.2036,-3.2079,-3.2153,-3.219,-3.2205,-3.2217,-3.226,-3.2276,-3.2088,-3.2088,-3.2088,0,-3.1978,-3.2015,-3.1975,-3.2009,-3.2016,-3.1957,-3.2004,-3.2003,-3.2004,-3.201,-3.1976,-3.2018,-3.2011,-3.207,-3.2098,-3.2103,-3.2115,-3.2081,-3.2206,-3.2218,-3.2229,-3.227,-3.2286,-3.2094,-3.2093,-3.2092,-3.2092,0,-3.21,-3.2127,-3.2164,-3.2166,-3.2177,-3.2217,-3.2184,-3.22,-3.2172,-3.2155,-3.22,-3.219,-3.2204,-3.2215,-3.2188,-3.2271,-3.2253,-3.2213,-3.2154,-3.2253,-3.2291,-3.2306,-3.2101,-3.2099,-3.2098,-3.2096,0,0,-3.2266,-3.2247,-3.2261,-3.2263,-3.2253,-3.2273,-3.2312,-3.2325,-3.2341,-3.2343,-3.2375,-3.2405,-3.2369,-3.2374,-3.2346,-3.2379,-3.2473,-3.2335,-3.2335,-3.2363,-3.2567,-3.2598,-3.2617,-3.2448,-3.245,-3.2453,-3.2568,0,-3.2376,-3.244,-3.2406,-3.2475,-3.25,-3.2445,-3.2479,-3.2477,-3.2462,-3.2483,-3.2466,-3.2489,-3.2438,-3.2441,-3.2471,-3.2455,-3.2514,-3.2446,-3.2479,-3.2481,-3.2484,-3.2636,-3.2669,-3.2778,-3.2582,-3.2584,-3.2586,0,-3.2512,-3.2521,-3.2593,-3.258,-3.259,-3.262,-3.2631,-3.265,-3.2648,-3.2635,-3.2642,-3.2607,-3.2645,-3.2586,-3.2639,-3.2594,-3.2605,-3.26,-3.2603,-3.2606,-3.2541,-3.2645,-3.2811,-3.2829,-3.2608,-3.2606,-3.2605,0,-3.2629,-3.2659,-3.2706,-3.2709,-3.2695,-3.2718,-3.2713,-3.2708,-3.2719,-3.2728,-3.2735,-3.2749,-3.2757,-3.2769,-3.274,-3.2699,-3.2798,-3.2735,-3.279,-3.2791,-3.2814,-3.2814,-3.2987,-3.2819,-3.2818,-3.2818,-3.2818,0,-3.2756,-3.2803,-3.2759,-3.2789,-3.284,-3.28,-3.2852,-3.2842,-3.2838,-3.2865,-3.2818,-3.2845,-3.2803,-3.2826,-3.2803,-3.2852,-3.2856,-3.2848,-3.2841,-3.2853,-3.2855,-3.2861,-3.2854,-3.2822,-3.2822,-3.2821,-3.282,0,-3.2896,-3.2869,-3.2917,-3.29,-3.2897,-3.2936,-3.2922,-3.2949,-3.2931,-3.2966,-3.2972,-3.2945,-3.297,-3.2941,-3.2964,-3.2948,-3.3015,-3.2997,-3.3016,-3.3012,-3.3069,-3.3065,-3.3254,-3.3278,-3.3093,-3.3094,-3.3096,0,-3.298,-3.3015,-3.3002,-3.3017,-3.3015,-3.3039,-3.3051,-3.3013,-3.3027,-3.3028,-3.3056,-3.3077,-3.3092,-3.3135,-3.3117,-3.3135,-3.3118,-3.3183,-3.312,-3.3132,-3.3122,-3.3121,-3.3125,-3.3197,-3.3199,-3.3201,-3.3202,0,-3.3133,-3.3118,-3.3135,-3.3149,-3.3164,-3.3173,-3.3178,-3.3193,-3.3154,-3.3173,-3.3198,-3.3209,-3.3233,-3.3255,-3.3268,-3.3264,-3.3228,-3.3222,-3.3236,-3.3249,-3.326,-3.3257,-3.3053,-3.3218,-3.3216,-3.3215,-3.3214,-3.3214,-3.3248,-3.3278,-3.3274,-3.3296,-3.3296,-3.3303,-3.3328,-3.3314,-3.3334,-3.335,-3.3326,-3.3359,-3.3357,-3.3371,-3.3371,-3.3397,-3.3369,-3.3389,-3.3394,-3.34,-3.341,-3.3254,-3.3399,-3.3398,-3.3398,-3.3397,-3.3397,0,-3.34,-3.3395,-3.3416,-3.3425,-3.3443,-3.3406,-3.3411,-3.3429,-3.3457,-3.3459,-3.3475,-3.3505,-3.3526,-3.3511,-3.353,-3.3554,-3.3538,-3.356,-3.3559,-3.3559,-3.3432,-3.3419,-3.3573,-3.3573,-3.3573,-3.3573,-3.3573,-3.3573,-3.3482,-3.353,-3.3515,-3.3563,-3.3558,-3.3589,-3.3595,-3.3601,-3.3603,-3.3638,-3.3656,-3.3646,-3.3641,-3.366,-3.3679,-3.3674,-3.3684,-3.3713,-3.3703,-3.3585,-3.3568,-3.3551,-3.3539,-3.3715,-3.3715,-3.3828,-3.3829,-3.3829]},{"header":{"parameterUnit":"m.s-1","parameterCategory":1,"la1":30.2991,"la2":30.254,"lo1":-89.0895,"lo2":-89.0444,"dy":0.0017,"dx":0.0017,"nx":28,"ny":28,"refTime":"2023-09-27T03:00:00:Z","depth":0,"parameterNumber":3,"parameterNumberName":"V-component_of_WINDS"},"data":[0,0,0,0,0,0,0,0,0,0,0,0,0,0,0,0,0,0,0,0,0,0,0,0,0,0,0,0,0,0,0,0,0,0,0,0,0,0,0,0,0,0,0,0,0,0,0,0,0,0,0,0,0,0,0,0,0,0,-0.7164,-0.7165,0,-0.7227,-0.7227,-0.7228,-0.7223,-0.7222,-0.7221,-0.722,-0.7288,-0.729,-0.7293,0,0,0,0,0,0,0,0,0,0,0,0,0,-0.7044,-0.7047,-0.7164,-0.7165,-0.7166,-0.7226,-0.7227,-0.7228,-0.7223,-0.7222,-0.7221,-0.7219,-0.7287,-0.729,-0.7293,0,0,0,0,0,0,0,0,0,0,0,0,0,-0.7101,-0.7047,-0.7164,-0.717,-0.7172,-0.7226,-0.7227,-0.7228,-0.7223,-0.7222,-0.722,-0.7219,-0.7286,-0.729,-0.7294,-0.7348,0,0,-0.7306,-0.7308,0,0,0,0,0,0,0,0,-0.7097,-0.7105,-0.7169,-0.717,-0.7171,-0.7215,-0.721,-0.7269,-0.7224,-0.7204,-0.722,-0.7218,-0.7265,-0.7271,-0.7286,-0.7351,-0.7354,-0.7306,-0.7309,-0.7311,-0.7312,0,0,0,0,0,0,0,-0.7094,-0.7102,-0.7189,-0.717,-0.7171,-0.7171,-0.7178,-0.7221,-0.7242,-0.7205,-0.7205,-0.7212,-0.7266,-0.7282,-0.7287,-0.7355,-0.7306,-0.731,-0.7312,-0.7314,-0.7469,-0.747,0,0,0,0,0,0,-0.7088,-0.7099,-0.7187,-0.7191,-0.713,-0.7175,-0.7182,-0.7203,-0.7241,-0.7246,-0.7213,-0.7212,-0.7276,-0.7283,-0.729,-0.7357,-0.7311,-0.7314,-0.7317,-0.7467,-0.7469,-0.7471,0,0,0,0,0,0,-0.7085,-0.7096,-0.7185,-0.7145,-0.7156,-0.7178,-0.7202,-0.7205,-0.7221,-0.7247,-0.7251,-0.7226,-0.7275,-0.7284,-0.7333,-0.7359,-0.7316,-0.732,-0.7465,-0.7468,-0.747,-0.7492,0,0,0,0,0,0,-0.7082,-0.7095,-0.7115,-0.7145,-0.7158,-0.7226,-0.7203,-0.7207,-0.7228,-0.7226,-0.726,-0.7265,-0.7274,-0.7327,-0.7337,-0.7364,-0.7323,-0.7463,-0.7466,-0.7469,-0.7489,-0.7495,-0.7499,0,0,0,0,0,-0.7077,-0.7119,-0.7116,-0.7126,-0.7183,-0.7228,-0.7235,-0.7244,-0.723,-0.7251,-0.7268,-0.7264,-0.7354,-0.7332,-0.7344,-0.7372,-0.7462,-0.7465,-0.7469,-0.7486,-0.7493,-0.7499,0,0,0,0,0,0,-0.7092,-0.7123,-0.712,-0.7172,-0.7197,-0.7227,-0.7254,-0.7251,-0.7282,-0.728,-0.7291,-0.7299,-0.7349,-0.7365,-0.734,-0.7427,-0.7406,-0.7412,-0.7415,-0.7422,-0.7428,-0.7424,-0.7326,0,0,0,0,0,-0.71,-0.7132,-0.7158,-0.7202,-0.7214,-0.7232,-0.7251,-0.7256,-0.7283,-0.7294,-0.7315,-0.7342,-0.7377,-0.74,-0.7433,-0.749,-0.7499,-0.7515,-0.752,-0.7525,-0.7531,-0.7564,-0.7573,-0.7483,-0.7483,-0.7483,0,0,-0.712,-0.7141,-0.7161,-0.7205,-0.7225,-0.726,-0.7241,-0.7278,-0.7304,-0.73,-0.7349,-0.7364,-0.7396,-0.745,-0.7474,-0.7465,-0.7557,-0.7529,-0.7533,-0.7537,-0.7569,-0.7578,-0.7585,-0.7486,-0.7486,-0.7485,0,0,-0.7174,-0.7191,-0.7231,-0.7251,-0.7281,-0.7292,-0.7301,-0.7331,-0.7341,-0.7389,-0.7387,-0.7419,-0.7478,-0.7501,-0.7521,-0.7583,-0.7581,-0.7593,-0.7623,-0.7655,-0.7662,-0.7668,-0.7693,-0.7702,-0.7598,-0.7598,-0.7598,0,-0.7195,-0.7245,-0.7251,-0.7289,-0.731,-0.7305,-0.7347,-0.7366,-0.7406,-0.7421,-0.7409,-0.7484,-0.7504,-0.7565,-0.758,-0.7594,-0.7607,-0.7591,-0.766,-0.7667,-0.7673,-0.7697,-0.7706,-0.76,-0.76,-0.76,-0.7599,0,-0.7271,-0.7306,-0.7334,-0.7372,-0.7396,-0.7435,-0.7448,-0.7471,-0.7473,-0.7486,-0.7536,-0.756,-0.7599,-0.7613,-0.7616,-0.7674,-0.7667,-0.7657,-0.7637,-0.7683,-0.7705,-0.7714,-0.7602,-0.7602,-0.7601,-0.7601,0,0,-0.7338,-0.7378,-0.7388,-0.7406,-0.7439,-0.7467,-0.7506,-0.7543,-0.7564,-0.7591,-0.7626,-0.7675,-0.7666,-0.7688,-0.7694,-0.7721,-0.7772,-0.7708,-0.7709,-0.7722,-0.7841,-0.7851,-0.7861,-0.7769,-0.7771,-0.7772,-0.7839,0,-0.7398,-0.7466,-0.7472,-0.7535,-0.7569,-0.7565,-0.7599,-0.7624,-0.7636,-0.7668,-0.7682,-0.7718,-0.7702,-0.7716,-0.7743,-0.776,-0.7797,-0.7755,-0.7805,-0.7807,-0.7801,-0.7872,-0.7883,-0.7945,-0.7848,-0.7849,-0.785,0,-0.7477,-0.7506,-0.7571,-0.76,-0.7614,-0.7645,-0.768,-0.7709,-0.7737,-0.7745,-0.7769,-0.777,-0.7812,-0.7787,-0.7847,-0.7819,-0.7839,-0.785,-0.7853,-0.7861,-0.7834,-0.7886,-0.7965,-0.7975,-0.7864,-0.7863,-0.7862,0,-0.7523,-0.7578,-0.7625,-0.764,-0.7673,-0.7696,-0.7711,-0.7737,-0.7759,-0.779,-0.7805,-0.7839,-0.786,-0.7887,-0.7899,-0.7879,-0.7959,-0.7934,-0.7969,-0.7969,-0.7989,-0.7988,-0.8075,-0.7996,-0.7995,-0.7995,-0.7995,0,-0.7591,-0.7632,-0.7646,-0.7676,-0.7722,-0.7729,-0.7775,-0.7789,-0.7812,-0.7846,-0.7843,-0.7875,-0.7886,-0.792,-0.7928,-0.7978,-0.7986,-0.7995,-0.7998,-0.7997,-0.7997,-0.8014,-0.8011,-0.7998,-0.7997,-0.7997,-0.7996,0,-0.7652,-0.7663,-0.7714,-0.7741,-0.7749,-0.7783,-0.7807,-0.7836,-0.7846,-0.7889,-0.7899,-0.7917,-0.7957,-0.797,-0.8018,-0.8024,-0.8082,-0.8079,-0.8073,-0.8075,-0.8109,-0.8107,-0.8214,-0.8229,-0.8136,-0.8137,-0.8137,0,-0.7697,-0.7728,-0.7759,-0.778,-0.7796,-0.783,-0.7853,-0.786,-0.7884,-0.7918,-0.7943,-0.7982,-0.8014,-0.8077,-0.8096,-0.8133,-0.8133,-0.8167,-0.8139,-0.8138,-0.8138,-0.8137,-0.8142,-0.8174,-0.8175,-0.8176,-0.8177,0,-0.7776,-0.7779,-0.7811,-0.7845,-0.7871,-0.7898,-0.7925,-0.7943,-0.7954,-0.7981,-0.802,-0.8045,-0.8093,-0.8133,-0.817,-0.8188,-0.8186,-0.8185,-0.8196,-0.8198,-0.8194,-0.82,-0.8092,-0.8184,-0.8183,-0.8182,-0.8182,-0.8182,-0.7833,-0.7861,-0.7887,-0.7923,-0.7943,-0.7967,-0.7997,-0.8011,-0.8044,-0.8083,-0.8085,-0.8129,-0.8157,-0.8207,-0.8225,-0.8261,-0.8252,-0.8266,-0.827,-0.8275,-0.8279,-0.8185,-0.8267,-0.8267,-0.8267,-0.8267,-0.8267,0,-0.7915,-0.7931,-0.7963,-0.8,-0.8028,-0.802,-0.8049,-0.8074,-0.8112,-0.8137,-0.8168,-0.8215,-0.8253,-0.8274,-0.8312,-0.8337,-0.8337,-0.8347,-0.8347,-0.8352,-0.8284,-0.8272,-0.8346,-0.8346,-0.8346,-0.8346,-0.8346,-0.8346,-0.7961,-0.801,-0.8016,-0.8075,-0.8091,-0.8133,-0.8151,-0.8174,-0.8194,-0.8246,-0.8277,-0.829,-0.8314,-0.8354,-0.8389,-0.8394,-0.841,-0.8422,-0.8427,-0.8364,-0.8356,-0.8349,-0.8338,-0.8425,-0.8425,-0.8493,-0.8493,-0.8494]}]]